Regional Weather Roundup
Issued by NWS

Home | Current Version | Previous Version | Graphics & Text | Print | Product List | Glossary On
Versions: 1 2 3 4 5 6 7 8 9 10 11 12 13 14 15 16 17 18 19 20 21 22 23 24 25 26 27 28 29 30 31 32 33 34 35 36 37 38 39 40 41 42 43 44 45 46 47 48 49 50
186
ASUS44 KLIX 011822
RWRLA
LOUISIANA WEATHER ROUNDUP
NATIONAL WEATHER SERVICE NEW ORLEANS LA
100 PM CDT FRI AUG 01 2014

NOTE: "FAIR" INDICATES FEW OR NO CLOUDS BELOW 12,000 FEET WITH NO
      SIGNIFICANT WEATHER AND/OR OBSTRUCTIONS TO VISIBILITY.
      SKY/WX - SKY CONDITION AND SIGNIFICANT WEATHER.
      TMP - AIR TEMPERATURE.    DP   - DEWPOINT TEMPERATURE.
      RH  - RELATIVE HUMIDITY.  PRES - PRESSURE.
      HX  - HEAT INDEX.         WCI  - WIND CHILL INDEX.

*  THESE STATIONS ARE NOT NWS OR FAA STATIONS AND ARE NOT UNDER
   NWS QUALITY CONTROL.

LAZ040-048-061>063-065-066-069-011900-
SOUTHEAST LOUISIANA

CITY           SKY/WX    TMP DP  RH WIND       PRES   REMARKS
N.O. AUDUBON     N/A     89  70  53 MISG        N/A  HX  95
6HR MIN TEMP:  79; 6HR MAX TEMP:  91;

N.O. INTL ARPT CLOUDY    88  69  53 CALM      30.00F
6HR MIN TEMP:  78; 6HR MAX TEMP:  88;

N.O. LAKEFRONT CLOUDY    85  68  56 NE10      30.01F
6HR MIN TEMP:  79; 6HR MAX TEMP:  85;

N.O. DOWNTOWN* MOCLDY    88  66  48 E3        30.01S
6HR MIN TEMP:  81; 6HR MAX TEMP:  88;

SLIDELL        CLOUDY    84  69  60 N6        30.01S
6HR MIN TEMP:  73; 6HR MAX TEMP:  85;

BATON ROUGE    CLOUDY    83  69  62 SE8       29.99F
6HR MIN TEMP:  72; 6HR MAX TEMP:  83; 6HR PCP:  0.01;

BOOTHVILLE     PTSUNNY   84  67  56 E3        30.02S
6HR MIN TEMP:  77; 6HR MAX TEMP:  86; 6HR PCP:  0.01;

BELLE CHASSE   CLOUDY    86  69  56 NE7       30.00S
6HR MIN TEMP:  75; 6HR MAX TEMP:  87;

BOGALUSA*      FAIR      79  68  69 E3        30.04F
6HR MIN TEMP:  73; 6HR MAX TEMP:  79;

GALLIANO*      NOT AVBL
NEW ROADS*     LGT RAIN  77  75  95 CALM      29.99F
6HR MIN TEMP:  73; 6HR MAX TEMP:  80; 6HR PCP:  0.20;

GONZALES*      FAIR      85  69  57 S8        29.99F
6HR MIN TEMP:  73; 6HR MAX TEMP:  86;

HAMMOND*       CLOUDY    84  68  58 E3        30.02S
HOUMA*         PTSUNNY   86  64  48 SE6       30.01S
PORT FOURCHON* CLEAR     84  70  61 VRB7      30.02S

$$

LAZ041-044-053-054-011900-
SOUTHWEST LOUISIANA

CITY           SKY/WX    TMP DP  RH WIND       PRES   REMARKS
LAKE CHARLES   CLOUDY    84  75  74 SW8       29.96F
6HR MIN TEMP:  75; 6HR MAX TEMP:  84; 6HR PCP:  0.06;

LAFAYETTE      CLOUDY    77  75  93 CALM      29.99F
6HR MIN TEMP:  74; 6HR MAX TEMP:  79;

PATTERSON      CLOUDY    81  73  78 S6        30.03S
6HR MIN TEMP:  75; 6HR MAX TEMP:  86;

SALT POINT       N/A     88  76  67 VRB5      29.98F HX  99
6HR MIN TEMP:  81; 6HR MAX TEMP:  88;

NEW IBERIA     LGT RAIN  78  75  90 CALM      30.00F
6HR MIN TEMP:  75; 6HR MAX TEMP:  83; 6HR PCP:  0.75;

CHENAULT AIRPK MOSUNNY   84  73  70 SW8       29.97F

$$

LAZ027-028-011900-
CENTRAL LOUISIANA

CITY           SKY/WX    TMP DP  RH WIND       PRES   REMARKS
FORT POLK      PTSUNNY   82  73  74 VRB7      29.96F
6HR MIN TEMP:  74; 6HR MAX TEMP:  82; 6HR PCP:  0.01;

ALEXANDRIA INT CLOUDY    78  75  90 S8        29.94F
6HR MIN TEMP:  70; 6HR MAX TEMP:  79; 6HR PCP:  0.76;

ALEXANDRIA     CLOUDY    78  74  87 SE3       29.96F
6HR MIN TEMP:  71; 6HR MAX TEMP:  78; 6HR PCP:  1.55;


$$

LAZ001-002-011900-
NORTHWEST LOUISIANA

CITY           SKY/WX    TMP DP  RH WIND       PRES   REMARKS
SHREVEPORT     LGT RAIN  70  68  94 N9        30.00S FOG
6HR MIN TEMP:  68; 6HR MAX TEMP:  71; 6HR PCP:  0.06;

BARKSDALE AFB  LGT RAIN  70  68  94 NE7       30.01R FOG
                                      6HR PCP:  0.04;

DTN SHREVEPORT LGT RAIN  70  66  88 N5        30.01S FOG
6HR MIN TEMP:  67; 6HR MAX TEMP:  69; 6HR PCP:  0.78;


$$

LAZ014-016-011900-
NORTHEAST LOUISIANA

CITY           SKY/WX    TMP DP  RH WIND       PRES   REMARKS
MONROE         RAIN      70  68  94 E7        30.01F FOG
6HR MIN TEMP:  68; 6HR MAX TEMP:  70; 6HR PCP:  0.58;

TALLULAH       CLOUDY    73  69  87 SE8       30.02F
6HR MIN TEMP:  70; 6HR MAX TEMP:  73; 6HR PCP:  0.27;


$$




USA.gov is the U.S. government's official web portal to all federal, state and local government web resources and services.